Flag for Canada Weather past 2 weeks in Rankin Inlet, Nunavut Territory, Canada

Now
46 °F

Partly sunny.


Feels Like: 38 °F
Forecast: 42 / 54 °F
Wind: 25 mph from North

Location: Rankin Inlet

Current Time: Aug 30, 2014 at 10:28:13 AM

Latest Report: Aug 30, 2014 at 10:00 AM


Visibility: 15 mi

Pressure: 29.61 "Hg

Humidity: 76%

Dew point: 39 °F

Location of Rankin InletLocation

Historic Weather in Rankin Inlet — Graph

°F

Rankin Inlet temperature yesterday

Maximum temperature yesterday: 50 °F (at 1:00 PM)
Minimum temperature yesterday: 43 °F (at 6:00 AM)
Average temperature yesterday: 46 °F

Past Weeks' High & Low Weather Summary

 TemperatureHumidityPressure
High61 °F (Aug 25, 2:00 PM)100% (Aug 17, 5:00 PM)30.47 "Hg (Aug 17, 5:00 PM)
Low41 °F (Aug 18, 3:00 AM)51% (Aug 16, 12:00 PM)29.29 "Hg (Aug 18, 12:00 AM)
Average47 °F81%29.88 "Hg
* Reported Aug 15 9:00 AM — Aug 30 9:00 AM, Rankin Inlet, Weather by CustomWeather, © 2014

Note: Actual official high and low records may vary slightly from our data, if they occured in-between our weather recording intervals... More about our weather records

Advertising

Rankin Inlet weather history for previous 24 hours

 ConditionsComfort  
Time TempWeatherWind HumidityBarometerVisibility
9:00 AM
Aug 30
46 °FPartly sunny.24 mph82%29.60 "Hg15 mi
8:00 AM45 °FPartly sunny.25 mph87%29.59 "Hg15 mi
7:00 AM45 °FPartly sunny.25 mph87%29.58 "Hg15 mi
6:00 AM46 °FSprinkles. Overcast.25 mph82%29.56 "Hg15 mi
5:00 AM46 °FSprinkles. Overcast.25 mph82%29.54 "Hg15 mi
4:00 AM46 °FSprinkles. Overcast.23 mph82%29.52 "Hg15 mi
3:00 AM46 °FSprinkles. Overcast.24 mph87%29.51 "Hg15 mi
2:00 AM46 °FSprinkles. Overcast.20 mph87%29.50 "Hg15 mi
1:00 AM46 °FSprinkles. Overcast.21 mph87%29.49 "Hg15 mi
12:00 AM46 °FSprinkles. Passing clouds.23 mph87%29.48 "Hg15 mi
11:00 PM
Aug 29
46 °FSprinkles. Passing clouds.24 mph87%29.47 "Hg15 mi
10:00 PM46 °FSprinkles. Mostly cloudy.21 mph87%29.47 "Hg15 mi
9:00 PM46 °FPartly cloudy.17 mph87%29.47 "Hg15 mi
8:00 PM46 °FPartly sunny.16 mph87%29.46 "Hg15 mi
7:00 PM46 °FSprinkles. Broken clouds.17 mph93%29.45 "Hg10 mi
6:00 PM46 °FSprinkles. Fog.21 mph93%29.44 "Hg6 mi
5:48 PM46 °FSprinkles. Fog.16 mph93%29.44 "Hg6 mi
5:00 PM46 °FSprinkles. Fog.23 mph93%29.42 "Hg4 mi
4:00 PM46 °FSprinkles. Cloudy.24 mph93%29.42 "Hg15 mi
2:00 PM48 °FDrizzle. More clouds than sun.26 mph87%29.41 "Hg10 mi
1:00 PM50 °FDrizzle. More clouds than sun.26 mph82%29.39 "Hg12 mi
12:00 PM48 °FDrizzle. Fog.24 mph94%29.40 "Hg1 mi
11:00 AM48 °FMostly cloudy.25 mph82%29.41 "Hg15 mi
10:00 AM45 °FSprinkles. Low clouds.21 mph93%29.41 "Hg10 mi
Weather by CustomWeather, © 2014

See weather overviewHow to use our weather pages